Date,TemperatureHighF,TemperatureAvgF,TemperatureLowF,DewpointHighF,DewpointAvgF,DewpointLowF,HumidityHigh,HumidityAvg,HumidityLow,PressureMaxIn,PressureMinIn,WindSpeedMaxMPH,WindSpeedAvgMPH,GustSpeedMaxMPH,PrecipitationSumIn
2013-5-1,69.9,66.1,62.4,61.0,59.0,55.0,90,78,69,30.15,30.04,13,2,0,0.00
2013-5-2,66.4,62.6,58.0,60.0,57.4,54.0,88,83,74,30.16,30.07,16,3,0,0.00
2013-5-3,68.7,62.3,58.8,58.0,56.9,56.0,91,83,67,30.07,29.87,17,5,0,0.11
2013-5-4,59.4,45.5,40.7,57.0,43.0,38.0,94,90,86,29.99,29.87,12,4,0,1.76
2013-5-5,57.5,48.0,42.8,51.0,44.9,40.0,92,89,76,29.91,29.80,9,2,0,0.22
2013-5-6,54.5,49.8,47.5,52.0,47.0,45.0,92,90,85,29.92,29.78,12,2,0,0.13
2013-5-7,67.5,55.4,46.0,55.0,49.2,43.0,91,81,57,30.01,29.89,11,2,0,0.17
2013-5-8,75.1,62.6,51.1,61.0,55.1,48.0,91,78,53,30.09,30.00,13,2,0,0.09
2013-5-9,79.0,67.1,53.1,63.0,57.5,50.0,91,74,49,30.14,30.02,10,1,0,0.02
2013-5-10,71.7,65.3,60.4,62.0,59.6,58.0,91,82,67,30.08,29.94,14,2,0,0.06
2013-5-11,72.0,65.7,58.7,66.0,60.8,53.0,90,84,73,30.02,29.92,12,2,0,0.01
2013-5-12,63.2,56.1,46.5,53.0,42.4,34.0,91,63,36,30.16,30.02,14,5,0,0.01
2013-5-13,67.4,54.5,38.5,49.0,41.1,36.0,91,65,37,30.28,30.15,15,2,0,0.01
2013-5-14,78.9,64.4,47.4,59.0,53.0,45.0,91,69,48,30.23,30.09,15,3,0,0.02
2013-5-15,82.4,70.3,58.1,60.0,57.0,54.0,88,65,40,30.18,30.03,10,2,0,0.00
2013-5-16,80.3,70.6,61.5,64.0,59.4,50.0,90,69,37,30.07,29.98,8,2,0,0.00
2013-5-17,72.4,67.1,63.5,68.0,63.5,60.0,90,88,80,30.08,29.98,11,1,0,0.31
2013-5-18,79.0,71.1,65.2,72.0,66.9,61.0,91,86,76,30.05,29.98,10,2,0,0.51
2013-5-19,80.7,71.9,64.6,73.0,67.8,62.0,91,87,72,30.07,29.99,16,3,0,0.09
2013-5-20,81.4,70.8,61.3,71.0,65.6,59.0,91,84,66,30.10,29.99,7,1,0,0.09
2013-5-21,85.6,75.3,64.1,72.0,67.5,61.0,91,78,55,30.04,29.86,11,2,0,0.00
2013-5-22,80.9,73.4,66.1,69.0,66.4,64.0,91,79,60,29.96,29.86,14,3,0,0.01
2013-5-23,79.6,71.2,61.3,67.0,61.7,58.0,92,74,51,30.05,29.93,14,4,0,0.00
2013-5-24,72.1,63.5,54.5,58.0,53.2,48.0,91,71,43,30.26,30.05,22,6,0,0.00
2013-5-25,77.0,62.3,49.3,55.0,49.6,45.0,92,67,33,30.33,30.20,7,1,0,0.00
2013-5-26,83.0,68.0,50.6,61.0,54.2,48.0,92,66,30,30.26,30.15,8,1,0,0.00
2013-5-27,82.8,70.5,56.7,65.0,60.6,54.0,91,73,49,30.21,30.09,12,2,0,0.00
2013-5-28,82.5,74.4,66.4,66.0,62.6,59.0,83,67,55,30.16,30.07,11,2,0,0.00
2013-5-29,84.3,75.8,66.9,69.0,64.2,59.0,78,68,53,30.18,30.07,11,3,0,0.00
2013-5-30,81.2,75.3,70.1,71.0,67.3,64.0,85,76,67,30.18,30.06,16,4,0,0.00
2013-5-31,83.2,76.0,70.2,70.0,67.7,66.0,87,76,60,30.14,30.02,13,5,0,0.00